Flag for U.S.A. Weather past 2 weeks in Fort Lauderdale, Florida, U.S.A.

Now
77 °F

Clear.


Feels Like: 79 °F
Forecast: 69 / 83 °F
Wind: 3 mph from Southeast

Location: Fort Lauderdale Executive Airport


UV Index: 7 (High)

Visibility: 10 mi


Pressure: 29.92 "Hg

Humidity: 77%

Dew point: 69 °F

Location of Fort LauderdaleLocation

Historic Weather in Fort Lauderdale

°F

Fort Lauderdale temperature yesterday

Maximum temperature yesterday: 83 °F (at 2:53 PM)
Minimum temperature yesterday: 67 °F (at 4:53 AM)
Average temperature yesterday: 75 °F

Past Weeks' High & Low Weather Summary

 TemperatureHumidityPressure
High87 °F (Apr 15, 12:53 PM)97% (Apr 18, 12:53 AM)30.27 "Hg (Apr 18, 12:53 AM)
Low62 °F (Apr 21, 6:53 AM)36% (Apr 10, 10:53 AM)29.85 "Hg (Apr 15, 3:53 PM)
Average75 °F72%30.02 "Hg
* Reported Apr 8 7:53 PM — Apr 23 7:53 PM, Fort Lauderdale, Weather by CustomWeather, © 2014

Note: Actual official high and low records may vary slightly from our data, if they occured in-between our weather recording intervals... More about our weather records

Advertising

Historic Weather Conditions — Data for Previous 24 hours

 ConditionsComfort  
Time TempWeatherWind HumidityBarometerVisibility
7:53 PM
Apr 23
77 °FSunny.6 mph69%29.90 "Hg10 mi
6:53 PM79 °FSunny.10 mph58%29.89 "Hg10 mi
5:53 PM81 °FScattered clouds.12 mph54%29.88 "Hg10 mi
4:53 PM82 °FPassing clouds.12 mph55%29.88 "Hg10 mi
3:53 PM83 °FScattered clouds.7 mph51%29.89 "Hg10 mi
2:53 PM83 °FPassing clouds.5 mph48%29.91 "Hg10 mi
1:53 PM82 °FSunny.3 mph49%29.93 "Hg10 mi
12:53 PM81 °FPassing clouds.N/A51%29.94 "Hg10 mi
11:53 AM79 °FSunny.8 mph56%29.96 "Hg10 mi
10:53 AM76 °FPassing clouds.3 mph62%29.97 "Hg10 mi
9:53 AM74 °FSunny.8 mph69%29.96 "Hg10 mi
8:53 AM70 °FSunny.8 mph79%29.95 "Hg10 mi
7:53 AM67 °FPassing clouds.6 mph87%29.94 "Hg10 mi
6:53 AM66 °FClear.5 mph87%29.92 "Hg10 mi
5:53 AM66 °FClear.7 mph87%29.89 "Hg10 mi
4:53 AM67 °FClear.3 mph87%29.89 "Hg10 mi
3:53 AM68 °FClear.6 mph82%29.89 "Hg10 mi
2:53 AM69 °FPassing clouds.8 mph79%29.89 "Hg10 mi
1:53 AM71 °FPassing clouds.9 mph73%29.90 "Hg10 mi
12:53 AM72 °FPassing clouds.9 mph81%29.90 "Hg10 mi
11:53 PM
Apr 22
75 °FClear.No wind76%29.90 "Hg10 mi
10:53 PM76 °FPassing clouds.No wind74%29.90 "Hg10 mi
9:53 PM76 °FPassing clouds.No wind72%29.90 "Hg10 mi
Weather by CustomWeather, © 2014

See weather overview